OE5RPP Weather Reports


time (UTC)temp
C
wind
direction
speed
KPH
gust
KPH
rain 1hr
cm
rain 24hr
cm
rain mn
cm
humidity
%
barometer
mb
20260507060136 10 180 6.4 8.0 0.00 0.41 0.00 60 1015.9
20260507055132 10 180 6.4 8.0 0.00 0.41 0.00 60 1015.9
20260507052131 10 180 6.4 8.0 0.00 0.41 0.00 60 1015.9
20260507051136 10 180 8.0 6.4 0.00 0.41 0.00 60 1015.9
20260507050131 10 157 6.4 6.4 0.00 0.41 0.00 60 1014.9
20260507044130 10 180 0.0 0.0 0.00 0.41 0.00 60 1014.9
20260507043135 9 180 6.4 6.4 0.00 0.41 0.00 61 1014.9
20260507040132 9 180 9.7 8.0 0.00 0.41 0.00 62 1014.9
20260507035131 9 157 4.8 6.4 0.00 0.41 0.00 62 1014.9
20260507034134 9 180 8.0 9.7 0.00 0.41 0.00 63 1014.9
20260507033132 9 135 9.7 6.4 0.00 0.41 0.00 62 1014.9
20260507030131 8 202 6.4 8.0 0.00 0.41 0.00 63 1013.9
20260507025132 8 180 6.4 6.4 0.00 0.41 0.00 62 1013.9
20260507024132 8 180 9.7 8.0 0.00 0.41 0.00 62 1013.9
20260507022131 9 157 9.7 11.3 0.00 0.41 0.00 63 1013.9
20260507020136 8 157 9.7 9.7 0.00 0.41 0.00 62 1013.9
20260507015131 8 157 8.0 8.0 0.00 0.41 0.00 62 1013.9
20260507014131 9 157 0.0 0.0 0.00 0.41 0.00 62 1013.9
20260507012136 9 180 8.0 8.0 0.00 0.41 0.00 62 1013.9
20260507011131 9 157 6.4 6.4 0.00 0.41 0.00 62 1013.9
20260507010130 9 202 6.4 6.4 0.00 0.41 0.00 62 1013.9
20260507004136 9 225 4.8 6.4 0.00 0.41 0.00 62 1013.9
20260507003131 9 157 14.5 16.1 0.00 0.41 0.00 61 1013.9
20260507001132 9 180 8.0 8.0 0.00 0.41 0.00 61 1013.9
20260506234135 10 180 4.8 6.4 0.00 0.41 0.00 60 1013.9
20260506232131 10 157 8.0 6.4 0.00 0.41 0.00 60 1013.9
20260506230137 10 180 8.0 9.7 0.00 0.41 0.00 59 1013.9
20260506224132 10 180 8.0 4.8 0.00 0.41 0.00 59 1013.9
20260506222132 10 157 4.8 8.0 0.00 0.41 0.00 59 1013.9
20260506221132 10 180 6.4 6.4 0.00 0.41 0.00 58 1012.9
20260506220131 10 180 9.7 9.7 0.00 0.41 0.00 58 1012.9
20260506212135 10 180 6.4 6.4 0.00 0.30 0.30 58 1012.9
20260506211131 10 225 3.2 4.8 0.00 0.30 0.30 57 1012.9
20260506204132 11 247 8.0 11.3 0.00 0.20 0.20 57 1012.9
20260506202136 11 270 12.9 12.9 0.00 0.20 0.20 58 1012.9
20260506195132 11 180 17.7 19.3 0.20 0.20 0.20 60 1011.9
20260506194131 12 225 11.3 14.5 0.20 0.20 0.20 59 1011.9
20260506193131 12 247 14.5 19.3 0.10 0.10 0.10 59 1011.9
20260506190136 12 270 6.4 6.4 0.00 0.00 0.00 51 1010.9
20260506185131 13 247 8.0 8.0 0.00 0.00 0.00 48 1010.9
20260506183135 13 180 9.7 6.4 0.00 0.00 0.00 40 1009.9
20260506182132 14 225 6.4 4.8 0.00 0.00 0.00 39 1009.9
20260506180132 14 225 8.0 6.4 0.00 0.00 0.00 34 1008.9
20260506175134 14 135 9.7 6.4 0.00 0.00 0.00 32 1008.9
20260506174131 14 270 14.5 12.9 0.00 0.00 0.00 30 1007.9
20260506173131 15 270 16.1 22.5 0.00 0.00 0.00 30 1007.9
20260506165135 22 180 8.0 4.8 0.00 0.00 0.00 18 1004.9
20260506164132 23 180 14.5 9.7 0.00 0.00 0.00 18 1004.9
20260506163133 26 135 11.3 11.3 0.00 0.00 0.00 17 1004.9
20260506162136 26 135 9.7 9.7 0.00 0.00 0.00 17 1004.9
20260506161132 26 157 9.7 12.9 0.00 0.00 0.00 17 1004.9
20260506160131 25 90 6.4 6.4 0.00 0.00 0.00 17 1004.9
20260506155131 25 90 4.8 4.8 0.00 0.00 0.00 17 1004.9
20260506153132 23 135 4.8 4.8 0.00 0.00 0.00 18 1005.9
20260506151135 22 90 3.2 6.4 0.00 0.00 0.00 18 1005.9
20260506145132 21 0 1.6 4.8 0.00 0.00 0.00 18 1005.9
20260506144134 21 0 6.4 6.4 0.00 0.00 0.00 20 1005.9
20260506141130 21 0 9.7 11.3 0.00 0.00 0.00 20 1006.9
20260506140131 22 22 8.0 6.4 0.00 0.00 0.00 18 1006.9
20260506134130 21 0 8.0 8.0 0.00 0.00 0.00 20 1006.9
20260506131131 23 22 9.7 6.4 0.00 0.00 0.00 18 1006.9
20260506130133 24 337 8.0 6.4 0.00 0.00 0.00 18 1007.9
20260506124134 22 337 8.0 9.7 0.00 0.00 0.00 18 1007.9
20260506122136 22 22 9.7 8.0 0.00 0.00 0.00 18 1007.9
20260506121133 23 0 8.0 6.4 0.00 0.00 0.00 18 1007.9
20260506115131 22 45 9.7 6.4 0.00 0.00 0.00 18 1007.9
20260506114135 22 315 8.0 6.4 0.00 0.00 0.00 18 1007.9
20260506113133 23 22 9.7 9.7 0.00 0.00 0.00 18 1008.9
20260506111130 23 315 6.4 4.8 0.00 0.00 0.00 18 1008.9
20260506110129 22 337 6.4 6.4 0.00 0.00 0.00 18 1008.9
20260506105130 21 45 6.4 4.8 0.00 0.00 0.00 20 1008.9
20260506104131 21 0 6.4 8.0 0.00 0.00 0.00 20 1008.9
20260506103130 20 0 9.7 9.7 0.00 0.00 0.00 20 1009.9
20260506102105 21 45 6.4 8.0 0.00 0.00 0.00 20 1009.9
20260506101106 21 67 4.8 6.4 0.00 0.00 0.00 22 1009.9
20260506100106 20 45 6.4 4.8 0.00 0.00 0.00 23 1009.9
20260506095106 19 270 9.7 9.7 0.00 0.00 0.00 23 1009.9
20260506094105 19 45 4.8 6.4 0.00 0.00 0.00 30 1009.9
20260506093107 18 67 6.4 6.4 0.00 0.00 0.00 30 1009.9
20260506092107 18 112 6.4 6.4 0.00 0.00 0.00 30 1009.9
20260506091106 17 337 4.8 6.4 0.00 0.00 0.00 31 1009.9
20260506090105 17 22 6.4 11.3 0.00 0.00 0.00 27 1009.9
20260506085105 17 90 8.0 6.4 0.00 0.00 0.00 31 1009.9
20260506084107 17 45 4.8 4.8 0.00 0.00 0.00 31 1009.9
20260506083106 17 0 8.0 6.4 0.00 0.00 0.00 34 1009.9
20260506082106 16 22 4.8 6.4 0.00 0.00 0.00 36 1009.9
20260506081106 15 0 6.4 4.8 0.00 0.00 0.00 36 1009.9
20260506080107 16 0 8.0 6.4 0.00 0.00 0.00 36 1009.9
20260506073105 15 0 6.4 8.0 0.00 0.00 0.00 45 1010.9
20260506072105 15 0 3.2 0.0 0.00 0.00 0.00 49 1010.9
20260506071107 14 0 4.8 6.4 0.00 0.00 0.00 54 1010.9
20260506070106 13 337 6.4 6.4 0.00 0.00 0.00 56 1010.9
20260506062106 12 225 0.0 0.0 0.00 0.00 0.00 58 1010.9